| time (UTC) | temp F | wind direction | speed MPH | gust MPH | rain 1hr in | rain 24hr in | rain mn in | humidity % | barometer mb |
| 20260508222112 | 54 | 288 | 3.0 | 9.0 | 0.00 | 0.00 | 0.00 | 62 | 1019.6 |
| 20260508221112 | 54 | 281 | 6.0 | 9.0 | 0.00 | 0.00 | 0.00 | 62 | 1019.4 |
| 20260508220112 | 55 | 312 | 5.0 | 9.0 | 0.00 | 0.00 | 0.00 | 61 | 1019.3 |
| 20260508215112 | 55 | 299 | 4.0 | 6.0 | 0.00 | 0.00 | 0.00 | 60 | 1019.3 |
| 20260508214112 | 55 | 284 | 4.0 | 8.0 | 0.00 | 0.00 | 0.00 | 59 | 1019.2 |
| 20260508213112 | 56 | 293 | 5.0 | 7.0 | 0.00 | 0.00 | 0.00 | 59 | 1019.3 |
| 20260508211112 | 57 | 300 | 4.0 | 7.0 | 0.00 | 0.00 | 0.00 | 57 | 1019.2 |
| 20260508210112 | 57 | 20 | 4.0 | 10.0 | 0.00 | 0.00 | 0.00 | 57 | 1019.1 |
| 20260508205112 | 58 | 23 | 5.0 | 12.0 | 0.00 | 0.00 | 0.00 | 57 | 1019.1 |
| 20260508204112 | 58 | 33 | 6.0 | 13.0 | 0.00 | 0.00 | 0.00 | 57 | 1019.0 |
| 20260508203112 | 58 | 39 | 6.0 | 10.0 | 0.00 | 0.00 | 0.00 | 56 | 1018.9 |
| 20260508202112 | 58 | 12 | 7.0 | 11.0 | 0.00 | 0.00 | 0.00 | 55 | 1018.8 |
| 20260508201112 | 59 | 355 | 7.0 | 11.0 | 0.00 | 0.00 | 0.00 | 55 | 1018.7 |
| 20260508200112 | 59 | 16 | 5.0 | 10.0 | 0.00 | 0.00 | 0.00 | 55 | 1018.7 |
| 20260508195112 | 59 | 5 | 6.0 | 10.0 | 0.00 | 0.00 | 0.00 | 54 | 1018.5 |
| 20260508194112 | 60 | 24 | 6.0 | 12.0 | 0.00 | 0.00 | 0.00 | 53 | 1018.3 |
| 20260508192112 | 61 | 40 | 9.0 | 12.0 | 0.00 | 0.00 | 0.00 | 49 | 1018.2 |
| 20260508191112 | 61 | 30 | 9.0 | 14.0 | 0.00 | 0.00 | 0.00 | 47 | 1018.1 |
| 20260508190112 | 61 | 38 | 8.0 | 11.0 | 0.00 | 0.00 | 0.00 | 45 | 1017.9 |
| 20260508185112 | 61 | 360 | 4.0 | 5.0 | 0.00 | 0.00 | 0.00 | 44 | 1017.6 |
| 20260508184112 | 63 | 24 | 2.0 | 3.0 | 0.00 | 0.00 | 0.00 | 42 | 1017.5 |
| 20260508181112 | 65 | 26 | 4.0 | 5.0 | 0.00 | 0.00 | 0.00 | 39 | 1017.2 |
| 20260508180112 | 65 | 32 | 5.0 | 7.0 | 0.00 | 0.00 | 0.00 | 39 | 1017.0 |
| 20260508175112 | 66 | 36 | 4.0 | 6.0 | 0.00 | 0.00 | 0.00 | 37 | 1016.8 |
| 20260508173111 | 67 | 32 | 5.0 | 10.0 | 0.00 | 0.00 | 0.00 | 35 | 1016.8 |
| 20260508172112 | 67 | 51 | 4.0 | 7.0 | 0.00 | 0.00 | 0.00 | 35 | 1016.6 |
| 20260508171112 | 68 | 42 | 4.0 | 9.0 | 0.00 | 0.00 | 0.00 | 34 | 1016.4 |
| 20260508170111 | 68 | 309 | 5.0 | 8.0 | 0.00 | 0.00 | 0.00 | 33 | 1016.6 |
| 20260508165112 | 69 | 57 | 7.0 | 11.0 | 0.00 | 0.00 | 0.00 | 32 | 1016.5 |
| 20260508164112 | 69 | 11 | 2.0 | 10.0 | 0.00 | 0.00 | 0.00 | 31 | 1016.4 |
| 20260508163111 | 69 | 9 | 6.0 | 14.0 | 0.00 | 0.00 | 0.00 | 30 | 1016.4 |
| 20260508162111 | 69 | 355 | 4.0 | 10.0 | 0.00 | 0.00 | 0.00 | 30 | 1016.3 |
| 20260508161112 | 70 | 48 | 7.0 | 10.0 | 0.00 | 0.00 | 0.00 | 30 | 1016.2 |
| 20260508160112 | 70 | 49 | 8.0 | 12.0 | 0.00 | 0.00 | 0.00 | 29 | 1016.5 |
| 20260508155111 | 70 | 32 | 4.0 | 10.0 | 0.00 | 0.00 | 0.00 | 29 | 1016.5 |
| 20260508154112 | 71 | 28 | 7.0 | 15.0 | 0.00 | 0.00 | 0.00 | 29 | 1016.4 |
| 20260508152111 | 71 | 312 | 8.0 | 11.0 | 0.00 | 0.00 | 0.00 | 30 | 1016.5 |
| 20260508151126 | 71 | 28 | 8.0 | 14.0 | 0.00 | 0.00 | 0.00 | 28 | 1016.7 |
| 20260508150111 | 71 | 57 | 8.0 | 10.0 | 0.00 | 0.00 | 0.00 | 28 | 1016.7 |
| 20260508145111 | 72 | 24 | 10.0 | 16.0 | 0.00 | 0.00 | 0.00 | 27 | 1016.8 |
| 20260508143111 | 71 | 51 | 3.0 | 14.0 | 0.00 | 0.00 | 0.00 | 28 | 1016.9 |
| 20260508142111 | 72 | 355 | 7.0 | 14.0 | 0.00 | 0.00 | 0.00 | 27 | 1016.9 |
| 20260508141111 | 73 | 323 | 4.0 | 14.0 | 0.00 | 0.00 | 0.00 | 26 | 1017.0 |
| 20260508140111 | 74 | 333 | 12.0 | 14.0 | 0.00 | 0.00 | 0.00 | 27 | 1017.2 |
| 20260508135111 | 74 | 317 | 1.0 | 10.0 | 0.00 | 0.00 | 0.00 | 26 | 1017.1 |
| 20260508133111 | 72 | 10 | 6.0 | 12.0 | 0.00 | 0.00 | 0.00 | 30 | 1017.3 |
| 20260508132111 | 73 | 19 | 10.0 | 15.0 | 0.00 | 0.00 | 0.00 | 28 | 1017.4 |
| 20260508131111 | 72 | 343 | 3.0 | 9.0 | 0.00 | 0.00 | 0.00 | 32 | 1017.5 |
| 20260508130111 | 72 | 15 | 10.0 | 13.0 | 0.00 | 0.00 | 0.00 | 29 | 1017.6 |
| 20260508125111 | 72 | 253 | 4.0 | 10.0 | 0.00 | 0.00 | 0.00 | 31 | 1017.7 |
| 20260508124111 | 71 | 344 | 6.0 | 14.0 | 0.00 | 0.00 | 0.00 | 31 | 1017.7 |
| 20260508123111 | 70 | 355 | 9.0 | 14.0 | 0.00 | 0.00 | 0.00 | 32 | 1017.6 |
| 20260508122111 | 70 | 328 | 8.0 | 13.0 | 0.00 | 0.00 | 0.00 | 32 | 1017.7 |
| 20260508121111 | 71 | 335 | 5.0 | 11.0 | 0.00 | 0.00 | 0.00 | 30 | 1017.7 |
| 20260508120111 | 72 | 5 | 4.0 | 10.0 | 0.00 | 0.00 | 0.00 | 32 | 1017.8 |
| 20260508115111 | 72 | 328 | 7.0 | 13.0 | 0.00 | 0.00 | 0.00 | 34 | 1017.8 |
| 20260508114111 | 71 | 337 | 5.0 | 13.0 | 0.00 | 0.00 | 0.00 | 33 | 1017.8 |
| 20260508113111 | 70 | 348 | 7.0 | 15.0 | 0.00 | 0.00 | 0.00 | 35 | 1017.7 |
| 20260508112111 | 69 | 323 | 6.0 | 11.0 | 0.00 | 0.00 | 0.00 | 35 | 1017.6 |
| 20260508111111 | 69 | 291 | 1.0 | 11.0 | 0.00 | 0.00 | 0.00 | 35 | 1017.8 |
| 20260508110111 | 69 | 260 | 8.0 | 10.0 | 0.00 | 0.00 | 0.00 | 35 | 1017.9 |
| 20260508105111 | 68 | 325 | 4.0 | 7.0 | 0.00 | 0.00 | 0.00 | 38 | 1017.9 |
| 20260508104111 | 67 | 300 | 9.0 | 11.0 | 0.00 | 0.00 | 0.00 | 38 | 1018.1 |
| 20260508103111 | 68 | 290 | 3.0 | 11.0 | 0.00 | 0.00 | 0.00 | 37 | 1018.3 |
| 20260508102111 | 68 | 263 | 8.0 | 15.0 | 0.00 | 0.00 | 0.00 | 38 | 1018.3 |
| 20260508101111 | 68 | 311 | 4.0 | 7.0 | 0.00 | 0.00 | 0.00 | 38 | 1018.1 |
| 20260508100110 | 68 | 263 | 4.0 | 11.0 | 0.00 | 0.00 | 0.00 | 39 | 1018.2 |
| 20260508095111 | 68 | 282 | 4.0 | 8.0 | 0.00 | 0.00 | 0.00 | 38 | 1018.3 |
| 20260508094111 | 68 | 27 | 3.0 | 9.0 | 0.00 | 0.00 | 0.00 | 38 | 1018.4 |
| 20260508093111 | 68 | 248 | 7.0 | 11.0 | 0.00 | 0.00 | 0.00 | 42 | 1018.5 |
| 20260508092111 | 68 | 298 | 9.0 | 14.0 | 0.00 | 0.00 | 0.00 | 41 | 1018.5 |
| 20260508091110 | 68 | 265 | 5.0 | 16.0 | 0.00 | 0.00 | 0.00 | 42 | 1018.5 |
| 20260508090110 | 67 | 292 | 6.0 | 10.0 | 0.00 | 0.00 | 0.00 | 43 | 1018.4 |
| 20260508085111 | 67 | 250 | 3.0 | 13.0 | 0.00 | 0.00 | 0.00 | 41 | 1018.3 |
| 20260508084110 | 66 | 317 | 5.0 | 12.0 | 0.00 | 0.00 | 0.00 | 41 | 1018.3 |
| 20260508083110 | 66 | 24 | 3.0 | 8.0 | 0.00 | 0.00 | 0.00 | 42 | 1018.3 |
| 20260508082110 | 66 | 296 | 9.0 | 13.0 | 0.00 | 0.00 | 0.00 | 44 | 1018.2 |
| 20260508081110 | 66 | 308 | 6.0 | 9.0 | 0.00 | 0.00 | 0.00 | 43 | 1018.3 |
| 20260508080111 | 66 | 294 | 8.0 | 11.0 | 0.00 | 0.00 | 0.00 | 43 | 1018.3 |
| 20260508075110 | 65 | 304 | 5.0 | 9.0 | 0.00 | 0.00 | 0.00 | 43 | 1018.3 |
| 20260508074110 | 65 | 342 | 5.0 | 10.0 | 0.00 | 0.00 | 0.00 | 46 | 1018.2 |
| 20260508073110 | 64 | 242 | 1.0 | 10.0 | 0.00 | 0.00 | 0.00 | 48 | 1018.2 |
| 20260508072110 | 63 | 299 | 3.0 | 9.0 | 0.00 | 0.00 | 0.00 | 49 | 1018.2 |
| 20260508071110 | 63 | 360 | 5.0 | 12.0 | 0.00 | 0.00 | 0.00 | 48 | 1018.3 |
| 20260508070110 | 62 | 303 | 6.0 | 9.0 | 0.00 | 0.00 | 0.00 | 51 | 1018.3 |
| 20260508065110 | 61 | 335 | 7.0 | 10.0 | 0.00 | 0.00 | 0.00 | 51 | 1018.2 |
| 20260508064110 | 61 | 329 | 4.0 | 11.0 | 0.00 | 0.00 | 0.00 | 51 | 1018.1 |
| 20260508063110 | 60 | 355 | 6.0 | 10.0 | 0.00 | 0.00 | 0.00 | 53 | 1018.0 |
| 20260508062110 | 59 | 348 | 6.0 | 11.0 | 0.00 | 0.00 | 0.00 | 54 | 1018.0 |
| 20260508061110 | 59 | 346 | 6.0 | 10.0 | 0.00 | 0.00 | 0.00 | 55 | 1018.0 |
| 20260508060110 | 58 | 336 | 10.0 | 12.0 | 0.00 | 0.00 | 0.00 | 56 | 1017.9 |
| 20260508054110 | 56 | 360 | 7.0 | 9.0 | 0.00 | 0.00 | 0.00 | 57 | 1017.8 |
| 20260508053110 | 56 | 333 | 6.0 | 10.0 | 0.00 | 0.00 | 0.00 | 58 | 1017.7 |
| 20260508052110 | 55 | 316 | 7.0 | 10.0 | 0.00 | 0.00 | 0.00 | 59 | 1017.8 |
| 20260508051110 | 54 | 355 | 5.0 | 9.0 | 0.00 | 0.00 | 0.00 | 60 | 1017.5 |
| 20260508050110 | 53 | 322 | 4.0 | 6.0 | 0.00 | 0.00 | 0.00 | 61 | 1017.4 |
| 20260508045110 | 52 | 314 | 6.0 | 9.0 | 0.00 | 0.00 | 0.00 | 62 | 1017.4 |
| 20260508044110 | 51 | 355 | 6.0 | 8.0 | 0.00 | 0.00 | 0.00 | 63 | 1017.6 |
| 20260508043125 | 50 | 336 | 5.0 | 6.0 | 0.00 | 0.00 | 0.00 | 64 | 1017.6 |
| 20260508042110 | 49 | 346 | 6.0 | 8.0 | 0.00 | 0.00 | 0.00 | 65 | 1017.3 |
| 20260508041125 | 49 | 355 | 4.0 | 7.0 | 0.00 | 0.00 | 0.00 | 65 | 1017.3 |
| 20260508040110 | 48 | 344 | 4.0 | 6.0 | 0.00 | 0.00 | 0.00 | 66 | 1017.3 |
| 20260508035110 | 48 | 321 | 5.0 | 8.0 | 0.00 | 0.00 | 0.00 | 65 | 1017.2 |
| 20260508034110 | 48 | 312 | 3.0 | 4.0 | 0.00 | 0.00 | 0.00 | 65 | 1017.2 |
| 20260508033110 | 48 | 19 | 3.0 | 4.0 | 0.00 | 0.00 | 0.00 | 65 | 1017.0 |
| 20260508032110 | 48 | 16 | 3.0 | 5.0 | 0.00 | 0.00 | 0.00 | 65 | 1016.8 |
| 20260508031110 | 49 | 337 | 3.0 | 6.0 | 0.00 | 0.00 | 0.00 | 64 | 1016.9 |
| 20260508030110 | 49 | 329 | 3.0 | 4.0 | 0.00 | 0.00 | 0.00 | 62 | 1017.0 |
| 20260508025109 | 49 | 340 | 4.0 | 5.0 | 0.00 | 0.00 | 0.00 | 62 | 1016.8 |
| 20260508024110 | 50 | 333 | 3.0 | 4.0 | 0.00 | 0.00 | 0.00 | 60 | 1016.9 |
| 20260508023109 | 51 | 327 | 2.0 | 3.0 | 0.00 | 0.00 | 0.00 | 59 | 1016.8 |
| 20260508022110 | 51 | 326 | 3.0 | 3.0 | 0.00 | 0.00 | 0.00 | 60 | 1016.8 |
| 20260508021109 | 52 | 327 | 1.0 | 3.0 | 0.00 | 0.00 | 0.00 | 60 | 1016.8 |
| 20260508020109 | 52 | 326 | 3.0 | 5.0 | 0.00 | 0.00 | 0.00 | 59 | 1016.8 |
| 20260508015109 | 53 | 306 | 6.0 | 8.0 | 0.00 | 0.00 | 0.00 | 58 | 1016.8 |
| 20260508014109 | 53 | 308 | 5.0 | 7.0 | 0.00 | 0.00 | 0.00 | 58 | 1016.8 |
| 20260508013109 | 53 | 301 | 5.0 | 8.0 | 0.00 | 0.00 | 0.00 | 58 | 1016.7 |
| 20260508012124 | 54 | 295 | 8.0 | 11.0 | 0.00 | 0.00 | 0.00 | 58 | 1016.7 |
| 20260508011109 | 54 | 313 | 6.0 | 6.0 | 0.00 | 0.00 | 0.00 | 57 | 1016.4 |
| 20260508005112 | 55 | 327 | 6.0 | 11.0 | 0.00 | 0.00 | 0.00 | 57 | 1016.4 |
| 20260508004127 | 55 | 300 | 9.0 | 11.0 | 0.00 | 0.00 | 0.00 | 57 | 1016.5 |
| 20260508003112 | 55 | 290 | 7.0 | 10.0 | 0.00 | 0.00 | 0.00 | 57 | 1016.2 |
| 20260508002112 | 55 | 310 | 8.0 | 10.0 | 0.00 | 0.00 | 0.00 | 57 | 1016.2 |
| 20260508001112 | 56 | 307 | 5.0 | 10.0 | 0.00 | 0.00 | 0.00 | 57 | 1016.3 |
| 20260508000112 | 56 | 305 | 6.0 | 9.0 | 0.00 | 0.00 | 0.00 | 57 | 1016.1 |
| 20260507235112 | 56 | 307 | 7.0 | 11.0 | 0.00 | 0.00 | 0.00 | 58 | 1016.2 |
| 20260507234112 | 56 | 302 | 6.0 | 14.0 | 0.00 | 0.00 | 0.00 | 58 | 1016.3 |
| 20260507233112 | 56 | 288 | 8.0 | 13.0 | 0.00 | 0.00 | 0.00 | 59 | 1016.2 |
| 20260507232112 | 56 | 277 | 9.0 | 11.0 | 0.00 | 0.00 | 0.00 | 59 | 1016.2 |
| 20260507231112 | 56 | 269 | 6.0 | 11.0 | 0.00 | 0.00 | 0.00 | 60 | 1016.3 |
| 20260507230112 | 56 | 265 | 7.0 | 10.0 | 0.00 | 0.00 | 0.00 | 61 | 1016.2 |
| 20260507225112 | 56 | 216 | 7.0 | 14.0 | 0.00 | 0.00 | 0.00 | 62 | 1016.1 |
| 20260507224112 | 56 | 250 | 8.0 | 11.0 | 0.00 | 0.00 | 0.00 | 63 | 1016.2 |
| 20260507223112 | 56 | 244 | 9.0 | 12.0 | 0.00 | 0.00 | 0.00 | 64 | 1016.0 |